Tracking 32427 objects as of 11-Dec-2025
HD Live streaming from Space Station
objects crossing your sky now

COSMOS 1806

Track COSMOS 1806 now!
COSMOS 1806 is classified as:


NORAD ID: 17213
Int'l Code: 1986-098A
Perigee: 7,796.7 km
Apogee: 32,601.1 km
Inclination: 68.6 °
Period: 718.4 minutes
Semi major axis: 26569 km
RCS: 14.9345 m2 (large)
Launch date: December 12, 1986
Source: Commonwealth of Independent States (former USSR) (CIS)
Launch site: PLESETSK MISSILE AND SPACE COMPLEX (PKMTR)
Your satellite tracking list
Your tracking list is empty




NASA's NSSDC Master Catalog

Two Line Element Set (TLE):
1 17213U 86098A   25343.60845244  .00000155  00000-0  00000+0 0  9995
2 17213  68.5655 153.0355 4667755  83.7019 340.2723  2.00455222285504
Source of the keplerian elements: AFSPC